San Antonio, TX

4:36 AM CST on December 05, 2016 (GMT -0600)
San Antonio International

Weather History for KSAT - May, 2012

Change the Weather History Date:

Tuesday, May 29, 2012

  Actual Average Record
Temperature  
Mean Temperature 84 °F 80 °F  
Max Temperature 93 °F 90 °F 102 °F (1927)
Min Temperature 75 °F 70 °F 57 °F (1888)
Degree Days  
Heating Degree Days 0 0  
Month to date heating degree days 0 0  
Since 1 July heating degree days 1130 1494  
Cooling Degree Days 19 15  
Month to date cooling degree days 378 340  
Year to date cooling degree days 821 599  
Growing Degree Days 34 (Base 50)    
Moisture  
Dew Point 70 °F    
Average Humidity 67    
Maximum Humidity 87    
Minimum Humidity 47    
Precipitation  
Precipitation 0.00 in 0.15 in 3.54 in (1987)
Month to date precipitation 9.84 3.70  
Year to date precipitation 22.74 11.66  
Snow  
Snow 0.00 in - - ()
Month to date snowfall 0.0  
Since 1 July snowfall T  
Snow Depth 0.00 in    
Sea Level Pressure  
Sea Level Pressure 29.85 in    
Wind  
Wind Speed 9 mph (SSE)    
Max Wind Speed 20 mph    
Max Gust Speed 24 mph    
Visibility 10 miles    
Events      
T = Trace of Precipitation, MM = Missing Value Source: NWS Daily Summary

Daily Weather History Graph

Daily Weather History Graph

Search for Another Location

Airport or City:

Trip Planner

Search our weather history database for the weather conditions in past years. The results will help you decide how hot, cold, wet, or windy it might be!

Date:

Astronomy

May. 29, 2012 Rise Set
Actual Time 6:34 AM CDT 8:28 PM CDT
Civil Twilight 6:08 AM CDT 8:54 PM CDT
Nautical Twilight 5:35 AM CDT 9:27 PM CDT
Astronomical Twilight 5:01 AM CDT 10:01 PM CDT
Moon 2:25 PM CDT (5/29) 2:00 AM CDT (5/29)
Length of Visible Light 14h 46m
Length of Day
13h 53m
First Quarter, 59% of the Moon is Illuminated
May 29
First Quarter
Jun 4
Full
Jun 11
Last Quarter
Jun 19
New
Jun 26
First Quarter

Hourly Weather History & Observations

Time (CDT) Temp. Heat Index Dew Point Humidity Pressure Visibility Wind Dir Wind Speed Gust Speed Precip Events Conditions
12:53 AM 77.0 °F - 70.0 °F 79% 29.84 in 10.0 mi ESE 8.1 mph - N/A   Partly Cloudy
1:46 AM 75.2 °F - 69.8 °F 83% 29.91 in 10.0 mi East 6.9 mph - N/A   Mostly Cloudy
1:53 AM 75.9 °F - 71.1 °F 85% 29.86 in 10.0 mi East 6.9 mph - N/A   Mostly Cloudy
2:53 AM 75.9 °F - 71.1 °F 85% 29.87 in 10.0 mi SE 6.9 mph - N/A   Overcast
3:53 AM 75.0 °F - 71.1 °F 87% 29.86 in 10.0 mi ESE 10.4 mph - N/A   Overcast
4:53 AM 75.0 °F - 71.1 °F 87% 29.87 in 10.0 mi SE 9.2 mph - N/A   Overcast
5:53 AM 75.0 °F - 71.1 °F 87% 29.87 in 10.0 mi SSE 8.1 mph - N/A   Overcast
6:53 AM 75.9 °F - 71.1 °F 85% 29.87 in 10.0 mi SSE 9.2 mph - N/A   Mostly Cloudy
7:53 AM 75.9 °F - 71.1 °F 85% 29.88 in 8.0 mi South 12.7 mph - N/A   Mostly Cloudy
8:39 AM 77.0 °F - 69.8 °F 78% 29.95 in 10.0 mi South 11.5 mph - N/A   Mostly Cloudy
8:53 AM 78.1 °F - 71.1 °F 79% 29.90 in 10.0 mi SSW 8.1 mph - N/A   Mostly Cloudy
9:53 AM 80.1 °F 83.2 °F 70.0 °F 71% 29.90 in 10.0 mi South 10.4 mph - N/A   Mostly Cloudy
10:53 AM 81.0 °F 84.1 °F 69.1 °F 67% 29.89 in 10.0 mi SSW 5.8 mph - N/A   Scattered Clouds
11:53 AM 84.9 °F 88.8 °F 69.1 °F 59% 29.89 in 10.0 mi SW 11.5 mph - N/A   Partly Cloudy
12:53 PM 87.1 °F 91.3 °F 69.1 °F 55% 29.87 in 10.0 mi SSW 10.4 mph - N/A   Partly Cloudy
1:53 PM 90.0 °F 95.4 °F 70.0 °F 52% 29.85 in 10.0 mi South 8.1 mph - N/A   Clear
2:53 PM 90.0 °F 94.5 °F 69.1 °F 50% 29.83 in 10.0 mi SE 5.8 mph - N/A   Partly Cloudy
3:53 PM 91.9 °F 96.9 °F 69.1 °F 47% 29.81 in 10.0 mi South 11.5 mph - N/A   Clear
4:29 PM 91.4 °F 96.8 °F 69.8 °F 49% 29.85 in 10.0 mi SE 9.2 mph 19.6 mph N/A   Clear
4:53 PM 91.9 °F 97.4 °F 70.0 °F 48% 29.79 in 10.0 mi SE 8.1 mph - N/A   Clear
5:53 PM 91.9 °F 96.9 °F 69.1 °F 47% 29.78 in 10.0 mi SE 9.2 mph - N/A   Clear
6:53 PM 91.9 °F 95.9 °F 68.0 °F 45% 29.77 in 10.0 mi SE 10.4 mph - N/A   Clear
7:53 PM 89.1 °F 92.1 °F 66.9 °F 48% 29.77 in 10.0 mi ESE 11.5 mph - N/A   Clear
8:53 PM 86.0 °F 89.4 °F 68.0 °F 55% 29.77 in 10.0 mi ESE 3.5 mph - N/A   Clear
9:53 PM 82.9 °F 85.8 °F 68.0 °F 60% 29.79 in 10.0 mi ESE 12.7 mph 18.4 mph N/A   Clear
10:53 PM 82.9 °F 87.5 °F 71.1 °F 67% 29.83 in 10.0 mi SE 17.3 mph 24.2 mph N/A   Clear
11:53 PM 80.1 °F 83.6 °F 71.1 °F 74% 29.84 in 10.0 mi SE 11.5 mph - N/A   Clear